Location: Unspecified
(47.1121°N, 116.3927°W)
Time: 20:34:31
(UTC-08:00)

Resurs 1-4 Rocket - Pass Details

Date: 17 October 2019
Orbit: 800 x 813 km, 98.6° (Epoch: 21 November)

Event Time Altitude Azimuth Distance (km) Brightness Sun altitude
Rises 02:24:28 0° 15° (NNE) 3,347 5.9 -45.1°
Reaches altitude 10° 02:26:49 10° 18° (NNE) 2,412 5.1 -44.8°
Enters shadow 02:26:57 11° 18° (NNE) 2,362 5.0 -44.8°
